SCP
0 0 0 0 0 0 0 0 0 0 0 0 0 0 0 0 0 0 0 0 0 0 0 0 0 0 0 0 0 0 0 0 0 -0 -0 0 0 0 0 0 0 0 0 0
0 0 0 0 0 0 0 0 0 0 0 0 0 0 0 0 0 0 0 0 0 0 0 0 0 0 0 0 0 0 0 0 0 -0 -0 0 0 0 0 0 0 0 0 0
0 0 0 0 0 0 0 0 0 0 0 0 0 0 0 0 0 0 0 0 0 0 0 0 0 0 0 0 0 0 0 0 0 -0 -0 0 0 0 0 0 0 0 0 0
0 0 0 0 0 0 0 0 0 0 0 0 0 0 0 0 0 0 0 0 0 0 0 0 0 0 0 0 0 0 0 0 0 0 0 0 0 0 0 0 0 0 0 0
0 0 0 0 0 0 0 0 0 0 0 0 0 0 0 0 0 0 0 0 0 0 0 0 0 0 0 0 0 0 0 0 0 0 0 0 0 0 0 0 0 0 0 0
0 0 0 0 0 0 0 0 0 0 0 0 0 0 0 0 0 0 0 0 0 0 0 0 0 0 0 0 0 0 0 0 0 0 0 0 0 0 0 0 0 0 0 0
0 0 0 0 0 0 0 0 0 0 0 0 0 0 0 0 0 0 0 0 0 0 0 0 0 0 0 0 0 0 0 0 0 0 0 0 0 0 0 0 0 0 0 -0
0 0 0 0 0 0 0 0 0 0 0 0 0 0 0 0 0 0 0 0 0 0 0 0 0 0 0 0 0 0 0 0 0 0 0 0 0 0 0 0 0 0 0 -0
0 0 0 0 0 0 0 0 0 0 0 0 0 0 0 0 0 0 0 0 0 0 0 0 0 0 0 0 0 0 0 0 0 0 0 0 0 0 0 0 0 0 0 -0
0 0 0 0 0 0 0 0 0 0 0 0 0 0 0 0 0 0 0 0 0 0 0 0 0 0 0 0 0 0 0 0 0 0 0 0 0 0 0 0 0 0 0 0
0 0 0 0 0 0 0 0 0 0 0 0 0 0 0 0 0 0 0 0 0 0 0 0 0 0 0 0 -0 0 0 0 0 0 0 0 0 0 0 0 0 0 0 0
0 0 0 0 0 0 0 0 0 0 0 0 0 0 0 0 0 0 0 0 0 0 0 0 0 0 0 -0 -0 0 0 0 0 0 0 0 0 0 0 0 0 0 0 0
0 0 0 0 0 0 0 0 0 0 0 0 0 0 0 0 0 0 0 0 0 0 0 0 0 0 0 0 0 0 0 0 0 0 0 0 0 0 0 0 0 0 0 0
0 0 0 0 0 0 0 0 0 0 0 0 0 0 0 0 0 0 0 0 0 0 0 0 0 0 0 0 0 0 0 0 0 0 0 0 0 0 0 0 0 0 0 0
0 0 0 0 0 0 0 0 0 0 0 0 0 0 0 0 0 0 0 0 0 0 0 0 0 0 0 0 0 0 0 0 0 0 0 0 0 0 0 0 0 0 0 0
0 0 0 0 0 0 0 0 0 0 -0 -0 0 0 0 0 0 0 0 0 0 0 0 0 0 0 0 0 0 -0 -0 0 0 0 0 0 0 0 0 0 0 0 0 0
0 0 0 0 0 0 0 0 0 0 -0 -0 -0 0 0 0 0 0 0 0 0 0 0 0 0 0 0 0 0 -0 0 0 0 0 0 0 0 0 0 0 0 0 0 0
0 0 0 0 0 0 0 0 0 0 -0 -0 -0 -0 -0 -0 -0 0 0 0 0 0 0 0 0 0 0 0 0 0 0 0 0 0 0 0 0 0 0 0 0 0 0 0
0 0 0 0 0 0 0 0 0 0 0 0 -0 -0 -0 -0 0 0 0 0 0 0 0 0 0 0 0 0 0 0 -0 -0 -0 0 0 0 0 0 0 0 0 0 0 0
0 0 0 0 0 0 0 0 0 0 0 0 0 0 0 0 0 0 0 0 0 0 0 0 0 0 0 0 0 0 0 0 0 0 0 0 0 0 0 0 0 0 0 0
0 0 0 0 0 0 0 0 0 0 0 0 0 0 0 0 0 0 0 0 0 0 0 0 0 0 0 0 0 0 0 0 0 0 0 0 0 0 0 0 0 0 0 0
0 0 0 0 0 0 0 0 0 0 0 0 0 0 0 0 0 0 0 0 0 0 0 0 0 0 0 0 0 0 0 0 0 0 0 0 0 0 0 0 0 0 0 0
0 -0 -0 -0 0 0 0 0 0 0 0 0 0 0 0 0 0 0 0 -0 -0 -0 0 -0 -0 -0 0 0 0 0 0 0 0 0 0 0 0 0 0 0 0 0 0 0
0 -0 -0 -0 0 0 0 0 0 0 0 0 0 0 0 0 0 0 0 -0 -0 -0 0 -0 -0 -0 0 0 0 0 0 0 0 0 0 0 0 0 0 0 0 0 0 0
0 0 -0 -0 0 0 0 0 0 0 0 0 0 0 0 0 0 0 0 0 0 0 0 0 0 0 0 0 0 0 0 0 0 0 0 0 0 0 0 0 0 0 0 0
0 0 0 0 0 0 0 0 0 0 0 0 0 0 0 0 0 0 0 0 0 0 0 0 0 0 0 0 0 0 0 0 0 0 0 0 0 0 0 0 0 0 0 0
0 0 0 0 0 0 0 0 0 0 0 0 0 0 0 0 0 0 0 0 0 0 0 0 0 0 0 0 0 0 0 0 0 0 0 0 0 0 0 0 0 0 0 0
Wind_Speed
1 1 3 2 2 2 2 3 4 3 3 3 6 8 9 10 10 10 9 9 8 7 5 4 4 4 4 4 3 4 5 5 4 4 5 5 6 6 6 6 7 6 7 7
3 3 5 5 5 3 3 2 2 2 0 1 5 7 8 10 10 10 10 9 8 7 7 5 5 4 4 3 3 4 5 4 4 4 5 5 5 5 6 6 6 7 7 7
0 2 3 4 4 2 2 2 1 1 2 5 6 8 9 10 10 9 9 9 8 8 7 6 5 4 4 3 3 4 4 4 4 4 5 5 5 5 6 5 6 7 7 7
2 3 1 2 1 1 2 2 2 1 2 5 5 5 4 6 8 9 9 9 8 7 6 5 4 4 4 4 4 4 4 4 4 4 4 4 5 5 4 4 5 5 6 6
3 2 0 1 0 0 1 2 2 3 5 6 7 6 3 3 6 8 8 8 7 7 6 5 5 5 5 4 4 4 3 3 3 3 3 4 4 3 3 3 4 4 4 6
4 3 1 2 2 1 2 1 0 3 6 7 6 3 3 4 6 7 7 7 7 7 6 6 5 6 6 5 4 3 3 3 3 3 3 3 3 2 2 3 3 3 5 5
3 2 2 3 3 1 1 3 1 4 6 6 3 3 4 8 7 8 8 8 8 8 6 5 6 6 6 4 3 3 3 3 3 3 3 2 2 2 2 3 3 4 4 4
2 2 2 4 2 1 3 1 2 4 4 5 5 6 7 8 9 9 9 8 8 7 6 5 5 6 5 4 2 3 4 3 3 2 2 2 2 2 3 2 3 3 3 4
3 3 3 2 0 1 2 2 2 4 4 7 7 6 7 7 8 8 8 8 7 7 6 4 4 5 5 3 3 4 4 3 2 2 2 2 2 2 2 2 2 1 2 2
2 2 2 2 2 2 2 2 3 5 6 7 7 8 8 8 8 7 7 7 6 7 6 4 3 4 4 4 4 5 4 2 2 2 2 2 2 1 1 1 0 0 0 1
1 0 2 3 3 2 3 5 6 6 5 7 10 9 8 8 8 7 6 6 6 6 6 5 4 4 4 4 5 5 4 3 2 2 2 2 1 1 0 1 2 2 1 1
3 3 3 1 0 2 4 5 6 6 6 5 8 9 8 7 6 7 7 6 6 6 5 5 4 4 4 4 5 5 3 2 2 1 1 1 1 1 2 1 1 3 4 3
3 2 3 2 2 3 4 5 5 6 7 7 6 7 8 7 6 7 7 7 7 6 5 5 4 4 4 4 5 4 3 3 2 1 1 1 0 0 2 3 2 1 2 3
3 4 3 2 2 3 5 6 6 6 5 6 7 7 8 7 7 7 7 7 6 6 5 5 5 4 4 5 5 4 3 3 3 2 1 1 1 1 1 1 2 3 3 4
2 3 4 4 4 4 5 6 7 5 5 5 6 7 8 8 8 7 6 6 6 5 5 5 5 4 4 5 4 4 3 2 2 2 2 2 1 1 2 2 2 3 3 3
3 5 5 5 5 4 5 5 6 5 5 6 6 6 7 7 7 6 6 7 7 6 6 6 5 4 4 5 4 3 2 3 3 2 2 2 2 2 2 2 3 3 3 3
5 4 4 4 4 4 4 5 6 6 6 6 7 7 7 7 6 5 5 5 6 6 6 6 6 5 5 5 5 3 2 2 3 2 2 2 3 3 3 3 3 4 4 4
5 5 6 7 7 6 5 4 5 6 6 7 7 7 8 8 8 7 6 5 4 3 4 6 5 5 5 5 4 3 3 2 2 2 3 3 3 3 3 3 4 5 4 4
3 4 4 5 6 6 6 5 5 5 6 7 8 8 8 7 7 6 6 6 6 6 6 6 7 6 6 6 6 3 3 3 3 3 3 4 4 3 3 4 4 5 5 4
3 3 4 4 5 5 5 5 5 5 6 7 8 7 6 6 6 7 7 6 7 6 6 6 7 6 6 6 7 4 4 4 4 4 3 3 4 4 4 5 5 5 5 5
3 3 3 4 4 4 4 5 6 6 6 7 8 9 8 7 7 7 6 6 6 6 6 8 6 6 6 6 7 5 5 5 5 5 4 4 4 5 5 5 5 5 5 5
2 3 3 3 3 3 3 4 5 6 6 7 7 7 7 6 7 6 7 7 6 8 6 6 6 8 8 8 6 6 6 6 6 5 5 5 5 6 6 6 6 6 6 6
2 2 3 3 3 3 2 3 4 5 6 7 8 8 8 7 6 6 7 6 5 8 7 6 9 12 12 8 6 7 7 7 7 7 6 6 7 7 7 7 7 7 7 7
1 2 2 2 3 3 2 3 4 4 5 5 6 7 7 6 5 6 6 6 9 10 8 8 12 14 12 7 7 7 8 8 8 7 8 7 7 7 7 8 8 7 8 9
1 2 2 2 2 2 3 2 2 3 3 3 4 5 6 6 6 6 6 7 9 10 8 10 14 14 10 7 8 9 8 9 9 8 8 8 8 8 8 8 9 8 8 8
1 1 1 2 2 2 2 2 2 3 3 3 3 4 4 4 5 5 5 6 8 9 8 7 8 9 8 9 9 10 9 9 10 10 10 9 10 10 9 9 12 10 9 9
1 0 0 1 1 1 2 3 3 4 4 4 4 4 4 5 5 5 6 6 6 7 7 7 7 8 8 9 9 10 9 9 9 10 10 10 9 10 10 12 10 9 9 10
Wind_Direction
99 127 109 74 58 83 118 165 174 211 196 209 183 165 151 144 144 146 147 148 146 141 137 130 119 106 97 89 82 80 78 70 60 57 53 53 51 46 42 40 38 32 34 31
50 65 85 67 32 46 59 84 107 114 209 104 123 126 136 147 154 157 157 156 152 146 144 140 134 124 109 101 95 91 86 77 71 67 61 56 53 49 46 38 33 35 35 34
100 302 54 28 350 23 45 32 120 174 202 137 132 150 160 162 163 162 159 156 155 152 149 145 143 137 130 120 108 96 90 86 81 77 70 57 56 52 45 35 36 36 32 35
88 56 80 260 330 71 81 29 37 95 129 140 137 132 138 150 156 156 155 154 152 145 139 135 130 126 122 112 110 103 96 93 90 84 76 69 62 51 39 34 35 33 30 29
98 94 328 300 340 107 98 6 34 109 116 109 109 89 81 139 149 155 153 147 144 140 137 135 134 130 119 111 110 106 101 97 96 98 89 77 67 52 39 44 41 35 27 29
104 112 200 261 315 219 112 344 13 132 141 140 128 131 201 157 137 133 131 131 132 131 129 133 134 129 121 122 121 125 127 115 103 104 101 87 70 56 50 59 53 48 41 30
101 115 286 304 307 97 121 252 192 152 153 152 164 176 147 133 126 130 129 131 132 131 132 136 135 129 126 131 143 146 125 112 101 97 101 101 76 61 68 67 57 47 42 29
111 109 271 329 29 105 219 199 131 143 145 131 117 108 118 124 127 128 126 129 132 131 129 128 133 133 134 147 152 126 114 106 97 90 90 102 91 70 64 66 56 36 29 21
160 191 254 319 19 6 136 121 131 140 137 131 126 127 126 127 130 131 132 133 131 131 126 124 134 142 147 160 136 120 110 103 93 82 72 80 89 79 61 58 63 36 30 16
70 23 7 13 35 44 81 118 125 131 135 136 135 139 134 135 135 135 133 134 132 131 132 135 139 145 154 146 133 124 120 111 100 93 71 60 61 67 79 66 54 12 347 338
64 359 40 21 34 68 73 89 101 106 123 138 137 140 141 141 142 142 135 133 136 142 145 148 144 144 149 144 134 126 123 116 107 97 92 68 47 22 286 226 214 209 222 217
202 214 169 223 27 112 108 107 117 113 112 123 139 141 139 141 142 140 139 136 138 143 147 151 151 151 153 150 143 137 132 129 125 123 115 106 69 8 4 301 279 223 212 204
177 150 140 126 89 95 113 119 121 120 131 135 134 137 137 136 140 140 141 146 153 157 157 154 152 156 159 153 147 148 154 158 151 152 156 169 193 274 326 341 359 340 261 237
125 109 95 96 109 101 111 113 107 104 113 127 130 131 132 130 138 147 156 161 158 154 156 157 158 168 167 156 154 161 165 172 172 186 194 207 225 235 244 285 313 316 310 274
68 115 135 119 103 98 108 112 114 117 120 121 128 135 141 144 151 159 160 153 148 152 161 161 168 183 166 159 163 170 171 177 180 192 202 210 224 233 237 245 258 276 294 297
90 91 107 116 123 123 126 131 139 149 147 143 147 152 154 153 153 155 155 154 155 171 176 173 185 190 168 164 166 169 185 200 188 192 204 217 228 237 246 252 257 260 266 266
126 136 144 150 160 164 167 166 165 166 163 163 165 157 148 145 148 158 166 171 174 180 179 181 193 187 172 172 172 179 189 209 207 203 221 229 235 241 246 249 256 260 260 250
180 182 179 176 177 178 178 168 165 168 173 173 157 152 157 165 174 179 177 167 165 183 198 196 193 182 181 183 181 181 187 203 210 225 239 244 247 245 245 248 256 263 272 270
155 163 173 181 179 175 175 177 177 176 169 160 160 168 176 180 181 176 165 164 178 204 220 205 192 186 191 198 188 187 197 213 223 230 235 247 253 251 249 251 257 260 265 268
145 155 160 164 163 168 177 179 171 168 167 163 162 165 175 184 178 172 171 188 205 207 200 190 187 194 201 203 194 196 206 217 228 234 235 240 248 256 256 255 256 258 258 258
157 155 158 163 169 176 177 173 171 175 172 167 172 181 187 187 180 175 178 210 226 206 194 192 191 199 203 201 197 202 210 219 228 235 241 246 252 257 258 258 258 258 257 258
157 161 167 167 165 177 181 172 173 174 171 176 182 181 179 184 186 190 204 216 216 193 190 197 202 206 206 201 203 208 215 222 229 234 241 244 247 254 257 257 257 258 257 256
142 157 163 170 176 180 168 171 178 177 182 187 189 189 192 196 190 193 219 224 208 199 197 207 211 211 208 206 210 215 221 226 231 236 240 242 244 248 252 255 255 255 255 256
120 140 150 147 133 136 176 204 190 189 193 196 200 197 190 192 208 216 221 212 204 201 209 216 216 217 211 212 215 221 226 230 235 239 243 246 247 247 250 253 255 254 253 254
109 109 111 124 149 197 215 204 183 192 191 203 211 204 199 199 208 216 209 212 210 207 218 222 220 218 215 218 221 225 229 233 235 237 241 244 247 249 250 250 251 254 254 254
115 147 188 205 209 207 187 173 186 199 193 206 223 216 210 209 212 212 210 215 213 212 218 224 219 214 217 220 225 228 231 235 237 239 241 242 246 248 250 251 251 251 252 253
73 62 26 308 265 205 191 192 202 212 206 206 222 223 213 211 211 215 216 218 217 218 221 224 221 218 219 223 227 230 232 234 236 238 239 241 244 246 248 249 251 251 251 253